{"data":{"norad_id":52550,"intl_designator":"2022-051T","name":"STARLINK-3965","alt_names":[],"object_type":"PAYLOAD","status":"ACTIVE","operator":null,"country":"US","launch_date":"2022-05-13","launch_site_code":"AFWTR","launch_vehicle":null,"mission":null,"orbit_class":"UNKNOWN","rcs_meters":null,"size_class":null,"mass_kg":null,"dimensions":null,"purposes":["comms"],"wikipedia_slug":null,"has_3d_model":false,"image_url":null,"decayed_at":null,"tle_current":{"epoch":"2026-05-25T00:58:39.948960Z","epoch_age_seconds":65446,"freshness":"FRESH","line1":"1 52550U 22051T   26145.04074015 -.00003170  00000+0 -18121-3 0  9994","line2":"2 52550  53.2127 146.3675 0001240  99.0793 261.0339 15.08836420222978","mean_motion":15.0883642,"eccentricity":0.000124,"inclination_deg":53.2127,"raan_deg":146.3675,"arg_perigee_deg":99.0793,"mean_anomaly_deg":261.0339,"bstar":-0.00018121,"rev_number":22297,"period_min":95.437781121429,"perigee_km":538.89651308842,"apogee_km":540.61215013866,"semimajor_km":6917.8913316135,"source":"CELESTRAK","updated_at":"2026-05-25T13:38:17.164316Z"}}}